Regional Weather Roundup
Issued by NWS Newport/Morehead, NC

Current Version | Previous Version | Text Only | Print | Product List | Glossary On
Versions: 1 2 3 4 5 6 7 8 9 10 11 12 13 14 15 16 17 18 19 20 21 22 23 24 25 26 27 28 29 30 31 32 33 34 35 36 37 38 39 40 41 42 43 44 45 46 47 48 49 50
000 ASUS42 KMHX 310922 RWRMHX WEATHER ROUNDUP FOR EASTERN NORTH CAROLINA NATIONAL WEATHER SERVICE NEWPORT/MOREHEAD CITY NC 500 AM EDT SUN AUG 31 2014 NOTE: "FAIR" INDICATES FEW OR NO CLOUDS BELOW 12,000 FEET WITH NO SIGNIFICANT WEATHER AND/OR OBSTRUCTIONS TO VISIBILITY NCZ015>017-031-032-045>047-102-103-311000- NORTH COAST CITY SKY/WX TMP DP RH WIND PRES REMARKS EDENTON MOCLDY 75 73 94 S5 30.17R ELIZABETH CITY PTCLDY 73 72 94 CALM 30.17S FOG KITTY HAWK SUNNY 76 74 92 CALM 30.16S MANTEO CLEAR 76 73 91 SW3 30.17S $$ NCZ045>047-081-094-103-104-311000- CENTRAL COAST CITY SKY/WX TMP DP RH WIND PRES REMARKS FRISCO PTCLDY 78 72 81 SW8 30.17 SWANQUARTER N/A 79 N/A N/A SW8 30.12S $$ NCZ095-097-098-100-101-311000- SOUTHERN COAST CITY SKY/WX TMP DP RH WIND PRES REMARKS BEAUFORT PTCLDY 77 72 84 SE3 30.16S CEDAR ISLAND N/A 75 N/A N/A S2 30.21S JACKSONVILLE PTCLDY 71 70 96 CALM 30.16S NEWPORT NOT AVBL PINEY ISLAND SUNNY 76 74 93 S3 30.16S WILMINGTON CLEAR 71 70 96 CALM 30.15S $$ NCZ011>013-027>030-043-044-078>080-089-090>093-098-311000- COASTAL PLAIN CITY SKY/WX TMP DP RH WIND PRES REMARKS AHOSKIE MOCLDY 71 70 98 CALM 30.17R CLINTON NOT AVBL ELIZABETHTOWN PTCLDY 71 71 99 CALM 30.16R GOLDSBORO FOG 70 70 100 E2 30.14F VSB 1/2 GREENVILLE MOCLDY 72 72 100 CALM 30.17S FOG HAVELOCK CLEAR 72 69 90 SE3 30.17S KENANSVILLE MOCLDY 67 66 96 CALM 30.17S KINSTON FOG 71 70 98 CALM 30.17S VSB 1 NEW BERN LGT RAIN 74 70 87 CALM 30.17S RICHLANDS PTCLDY 66 64 94 CALM 30.16S ROANOKE RAPIDS NOT AVBL ROCKY MOUNT PTCLDY 71 70 96 S3 30.16S WASHINGTON PTCLDY 72 71 97 CALM 30.17S WHITEVILLE PTCLDY 71 70 96 CALM 30.15S $$ AMZ130-135-150-152-154-156-158-170-250-252-270-ANZ085-086-088-633-658-670-311000- MARINE OBSERVATIONS STATION/POSITION TIME TEMP WIND PRES WAVE SWELL AIR SEA DIR/SP/G HT/PER HT/PER (UTC) (F) (DEG/KT/KT) (MB) (FT/S) (FT/S) CHESAPEAKE LIGHT 0900 77 210/ 10/ 10 1022.0 BUOY 44014 0900 77 76 170/ 6/ 8 1021.4 3/ 8 2/ 8 DUCK 0900 78 76 190/ 3/ 4 1020.8 2E DUCK 0900 N/A 2/ 8 OREGON INLET 0900 79 81 190/ 7/ 9 1021.5 BUOY 44095 0900 77 N/A 2/10 20E OREGON INLET NOT AVBL HATTERAS CG 0900 81 83 180/ 4/ 7 1022.1 DIAMOND BUOY 0900 80 180/ 10/ 14 1021.5 3/10 3/10 CAPE LOOKOUT 0900 81 160/ 6/ 7 1021.2 BEAUFORT LAB 0900 80 82 170/ 6/ 7 1020.7 30 SE NEW RIVER 0900 82 83 190/ 8/ 10 1021.4 3/ 7 2/ 7 5 SE WRIGHTSVILL 0900 77 81 190/ 6/ 8 N/A BUOY 41002 0841 81 83 150/ 6/ 8 1022.7 3/10 3/10 BUOY 41004 0900 82 83 200/ 8/ 10 1019.7 3/ 8 3/ 8 $$

USA.gov is the U.S. government's official web portal to all federal, state and local government web resources and services.